Zurück zum Katalog

OSCAR 10

AktivAmateurfunkHEO
NORAD 14129·PAYLOAD·🇩🇪 Germany

Gestartet Jun 16, 1983 von Guiana Space Centre

Loading…

Nächste Überflüge (nächste 24 Stunden)

TLE

AktuellSource: Space-Track

Epoche: Sep 10, 2026, 19:39 UTC

1 14129U 83058B   26253.81923402 -.00000299  00000-0  00000+0 0  9998
2 14129  25.9748 205.5539 5983154 139.1490 286.0555  2.05871418297257

Verfolge OSCAR 10 in Echtzeit mit AllMySat

Download on the App Store